Piney Island, NC

11:17 AM EDT on May 25, 2017 (GMT -0400)
Piney Island

Weather History for KNBT - January, 2013

Change the Weather History Date:

Wednesday, January 30, 2013

  Actual Average (KMRH) Record (KMRH)
Temperature  
Mean Temperature 66 °F -  
Max Temperature 75 °F 56 °F 69 °F (2013)
Min Temperature 57 °F 34 °F 16 °F (1966)
Cooling Degree Days 1    
Growing Degree Days 16 (Base 50)    
Moisture  
Dew Point 61 °F    
Average Humidity 79    
Maximum Humidity 100    
Minimum Humidity 64    
Precipitation  
Precipitation 0.01 in - - ()
Sea Level Pressure  
Sea Level Pressure 29.96 in    
Wind  
Wind Speed 12 mph (South)    
Max Wind Speed 25 mph    
Max Gust Speed 45 mph    
Averages and records for this station are not official NWS values.
T = Trace of Precipitation, MM = Missing Value Source: NWS Daily Summary

Daily Weather History Graph

Daily Weather History Graph

Search for Another Location

Airport or City:

Trip Planner

Search our weather history database for the weather conditions in past years. The results will help you decide how hot, cold, wet, or windy it might be!

Date:

Astronomy

Jan. 30, 2013 Rise Set
Actual Time 7:05 AM EST 5:32 PM EST
Civil Twilight 6:39 AM EST 5:59 PM EST
Nautical Twilight 6:08 AM EST 6:29 PM EST
Astronomical Twilight 5:39 AM EST 6:59 PM EST
Moon 9:17 PM EST (1/30) 8:43 AM EST (1/30)
Length of Visible Light 11h 20m
Length of Day
10h 26m
Waning Gibbous, 88% of the Moon is Illuminated
Jan 30
Waning Gibbous
Feb 3
Last Quarter
Feb 10
New
Feb 17
First Quarter
Feb 25
Full

Hourly Weather History & Observations

Time (EST) Temp. Dew Point Humidity Pressure Visibility Wind Dir Wind Speed Gust Speed Precip Events Conditions
12:56 AM 60.1 °F 57.9 °F 93% 30.16 in - SSW 5.8 mph - N/A   Clear
1:56 AM 60.1 °F 57.9 °F 93% 30.13 in - South 5.8 mph - 0.01 in   Clear
2:28 AM 57.2 °F 55.4 °F 94% 30.11 in - South 3.5 mph - N/A   Scattered Clouds
2:38 AM 57.2 °F 55.4 °F 94% 30.11 in - South 4.6 mph - N/A   Mostly Cloudy
2:53 AM 57.2 °F 57.2 °F 100% 30.10 in - South 5.8 mph - N/A   Scattered Clouds
2:56 AM 59.0 °F 57.0 °F 93% 30.12 in - South 5.8 mph - N/A   Scattered Clouds
3:56 AM 60.1 °F 59.0 °F 96% 30.10 in - South 5.8 mph - N/A   Scattered Clouds
4:56 AM 62.1 °F 60.1 °F 93% 30.09 in - South 5.8 mph - N/A   Clear
5:56 AM 64.9 °F 61.0 °F 87% 30.08 in - SSW 10.4 mph - N/A   Clear
7:56 AM 64.9 °F 62.1 °F 90% 30.09 in - South 6.9 mph 44.9 mph N/A   Clear
8:56 AM 70.0 °F 63.0 °F 78% 30.06 in - South 15.0 mph 23.0 mph N/A   Clear
9:56 AM 73.0 °F 63.0 °F 71% 30.05 in - South 19.6 mph 29.9 mph N/A   Clear
10:56 AM 73.9 °F 63.0 °F 68% 30.03 in - SSW 24.2 mph 32.2 mph N/A   Clear
11:54 AM 75.2 °F 62.6 °F 65% 29.99 in - SSW 20.7 mph 36.8 mph N/A   Mostly Cloudy
11:56 AM 75.9 °F 63.0 °F 64% 30.00 in - South 21.9 mph 36.8 mph N/A   Mostly Cloudy
12:56 PM 73.9 °F 63.0 °F 68% 29.96 in - South 24.2 mph 35.7 mph N/A   Overcast
1:56 PM 73.0 °F 63.0 °F 71% 29.94 in - South 20.7 mph 29.9 mph N/A   Overcast
2:04 PM 73.4 °F 62.6 °F 69% 29.92 in - South 19.6 mph 28.8 mph N/A   Overcast
2:15 PM 73.4 °F 62.6 °F 69% 29.91 in - SSW 19.6 mph 32.2 mph N/A   Mostly Cloudy
2:56 PM 73.0 °F 63.0 °F 71% 29.92 in - South 23.0 mph 34.5 mph N/A   Overcast
3:26 PM 71.6 °F 62.6 °F 73% 29.89 in - South 21.9 mph 31.1 mph N/A   Mostly Cloudy
3:33 PM 73.4 °F 62.6 °F 69% 29.89 in - South 18.4 mph 32.2 mph N/A   Mostly Cloudy
3:56 PM 73.0 °F 63.0 °F 71% 29.89 in - South 21.9 mph 28.8 mph N/A   Partly Cloudy
4:56 PM 71.1 °F 62.1 °F 73% 29.87 in - South 17.3 mph 27.6 mph N/A   Mostly Cloudy
5:56 PM 69.1 °F 62.1 °F 78% 29.84 in - South 19.6 mph 28.8 mph N/A   Clear
6:56 PM 68.0 °F 62.1 °F 81% 29.83 in - South 15.0 mph 23.0 mph N/A   Clear
7:56 PM 70.0 °F 62.1 °F 76% 29.80 in - South 20.7 mph 31.1 mph N/A   Overcast
8:56 PM 70.0 °F 62.1 °F 76% 29.76 in - South 18.4 mph 34.5 mph N/A   Scattered Clouds
9:56 PM 69.1 °F 62.1 °F 78% 29.74 in - South 18.4 mph 29.9 mph N/A   Mostly Cloudy
10:56 PM 71.1 °F 63.0 °F 75% 29.72 in - South 23.0 mph 39.1 mph N/A   Overcast
11:56 PM 71.1 °F 63.0 °F 75% 29.67 in - South 25.3 mph 33.4 mph N/A   Overcast